Year,Month,Day,Hour,Minute,Value (Times are PST for temperature in C)
2006,07,22,00,00,22.20
2006,07,22,00,01,22.10
2006,07,22,00,02,22.10
2006,07,22,00,03,22.10
2006,07,22,00,04,22.10
2006,07,22,00,05,22.20
2006,07,22,00,06,22.20
2006,07,22,00,07,22.20
2006,07,22,00,08,22.20
2006,07,22,00,09,22.20
2006,07,22,00,10,22.20
2006,07,22,00,11,22.20
2006,07,22,00,12,22.20
2006,07,22,00,13,22.20
2006,07,22,00,14,22.20
2006,07,22,00,15,22.10
2006,07,22,00,16,22.10
2006,07,22,00,17,22.10
2006,07,22,00,18,22.00
2006,07,22,00,19,22.00
2006,07,22,00,20,22.00
2006,07,22,00,21,21.90
2006,07,22,00,22,21.90
2006,07,22,00,23,21.90
2006,07,22,00,24,21.80
2006,07,22,00,25,21.80
2006,07,22,00,26,21.80
2006,07,22,00,27,21.70
2006,07,22,00,28,21.70
2006,07,22,00,29,21.70
2006,07,22,00,30,21.60
2006,07,22,00,31,21.60
2006,07,22,00,32,21.60
2006,07,22,00,33,21.60
2006,07,22,00,34,21.60
2006,07,22,00,35,21.60
2006,07,22,00,36,21.60
2006,07,22,00,37,21.60
2006,07,22,00,38,21.60
2006,07,22,00,39,21.60
2006,07,22,00,40,21.60
2006,07,22,00,41,21.60
2006,07,22,00,42,21.60
2006,07,22,00,43,21.60
2006,07,22,00,44,21.60
2006,07,22,00,45,21.60
2006,07,22,00,46,21.60
2006,07,22,00,47,21.60
2006,07,22,00,48,21.60
2006,07,22,00,49,21.60
2006,07,22,00,50,21.60
2006,07,22,00,51,21.60
2006,07,22,00,52,21.60
2006,07,22,00,53,21.60
2006,07,22,00,54,21.60
2006,07,22,00,55,21.60
2006,07,22,00,56,21.60
2006,07,22,00,57,21.60
2006,07,22,00,58,21.60
2006,07,22,00,59,21.70
2006,07,22,01,00,21.70
2006,07,22,01,01,21.70
2006,07,22,01,02,21.70
2006,07,22,01,03,21.70
2006,07,22,01,04,21.70
2006,07,22,01,05,21.70
2006,07,22,01,06,21.70
2006,07,22,01,07,21.80
2006,07,22,01,08,21.80
2006,07,22,01,09,21.80
2006,07,22,01,10,21.80
2006,07,22,01,11,21.80
2006,07,22,01,12,21.80
2006,07,22,01,13,21.80
2006,07,22,01,14,21.90
2006,07,22,01,15,21.90
2006,07,22,01,16,21.90
2006,07,22,01,17,22.00
2006,07,22,01,18,22.00
2006,07,22,01,19,22.00
2006,07,22,01,20,22.00
2006,07,22,01,21,22.00
2006,07,22,01,22,22.00
2006,07,22,01,23,22.00
2006,07,22,01,24,22.00
2006,07,22,01,25,22.00
2006,07,22,01,26,22.00
2006,07,22,01,27,22.00
2006,07,22,01,28,22.10
2006,07,22,01,29,22.10
2006,07,22,01,30,22.10
2006,07,22,01,31,22.10
2006,07,22,01,32,22.10
2006,07,22,01,33,22.10
2006,07,22,01,34,22.10
2006,07,22,01,35,22.10
2006,07,22,01,36,22.10
2006,07,22,01,37,22.10
2006,07,22,01,38,22.10
2006,07,22,01,39,22.10
2006,07,22,01,40,22.10
2006,07,22,01,41,22.20
2006,07,22,01,42,22.20
2006,07,22,01,43,22.20
2006,07,22,01,44,22.20
2006,07,22,01,45,22.20
2006,07,22,01,46,22.20
2006,07,22,01,47,22.20
2006,07,22,01,48,22.20
2006,07,22,01,49,22.20
2006,07,22,01,50,22.20
2006,07,22,01,51,22.20
2006,07,22,01,52,22.20
2006,07,22,01,53,22.20
2006,07,22,01,54,22.20
2006,07,22,01,55,22.20
2006,07,22,01,56,22.20
2006,07,22,01,57,22.20
2006,07,22,01,58,22.20
2006,07,22,01,59,22.20
2006,07,22,02,00,22.20
2006,07,22,02,01,22.20
2006,07,22,02,02,22.20
2006,07,22,02,03,22.20
2006,07,22,02,04,22.20
2006,07,22,02,05,22.20
2006,07,22,02,06,22.20
2006,07,22,02,07,22.20
2006,07,22,02,08,22.10
2006,07,22,02,09,22.10
2006,07,22,02,10,22.10
2006,07,22,02,11,22.10
2006,07,22,02,12,22.10
2006,07,22,02,13,22.10
2006,07,22,02,14,22.10
2006,07,22,02,15,22.10
2006,07,22,02,16,22.10
2006,07,22,02,17,22.10
2006,07,22,02,18,22.10
2006,07,22,02,19,22.10
2006,07,22,02,20,22.10
2006,07,22,02,21,22.10
2006,07,22,02,22,22.10
2006,07,22,02,23,22.10
2006,07,22,02,24,22.10
2006,07,22,02,25,22.10
2006,07,22,02,26,22.10
2006,07,22,02,27,22.10
2006,07,22,02,28,22.10
2006,07,22,02,29,22.10
2006,07,22,02,30,22.10
2006,07,22,02,31,22.10
2006,07,22,02,32,22.10
2006,07,22,02,33,22.10
2006,07,22,02,34,22.10
2006,07,22,02,35,22.10
2006,07,22,02,36,22.10
2006,07,22,02,37,22.10
2006,07,22,02,38,22.20
2006,07,22,02,39,22.20
2006,07,22,02,40,22.20
2006,07,22,02,41,22.20
2006,07,22,02,42,22.20
2006,07,22,02,43,22.30
2006,07,22,02,44,22.30
2006,07,22,02,45,22.40
2006,07,22,02,46,22.40
2006,07,22,02,47,22.50
2006,07,22,02,48,22.50
2006,07,22,02,49,22.60
2006,07,22,02,50,22.60
2006,07,22,02,51,22.70
2006,07,22,02,52,22.70
2006,07,22,02,53,22.80
2006,07,22,02,54,22.90
2006,07,22,02,55,23.00
2006,07,22,02,56,23.10
2006,07,22,02,57,23.10
2006,07,22,02,58,23.20
2006,07,22,02,59,23.30
2006,07,22,03,00,23.30
2006,07,22,03,01,23.40
2006,07,22,03,02,23.40
2006,07,22,03,03,23.50
2006,07,22,03,04,23.60
2006,07,22,03,05,23.60
2006,07,22,03,06,23.60
2006,07,22,03,07,23.70
2006,07,22,03,08,23.70
2006,07,22,03,09,23.60
2006,07,22,03,10,23.60
2006,07,22,03,11,23.60
2006,07,22,03,12,23.40
2006,07,22,03,13,23.40
2006,07,22,03,14,23.30
2006,07,22,03,15,23.30
2006,07,22,03,16,23.30
2006,07,22,03,17,23.30
2006,07,22,03,18,23.20
2006,07,22,03,19,23.20
2006,07,22,03,20,23.20
2006,07,22,03,21,23.10
2006,07,22,03,22,23.10
2006,07,22,03,23,23.10
2006,07,22,03,24,23.00
2006,07,22,03,25,22.90
2006,07,22,03,26,22.90
2006,07,22,03,27,22.90
2006,07,22,03,28,22.90
2006,07,22,03,29,22.90
2006,07,22,03,30,22.90
2006,07,22,03,31,22.90
2006,07,22,03,32,22.90
2006,07,22,03,33,22.90
2006,07,22,03,34,22.90
2006,07,22,03,35,22.90
2006,07,22,03,36,22.90
2006,07,22,03,37,22.90
2006,07,22,03,38,22.90
2006,07,22,03,39,22.90
2006,07,22,03,40,22.90
2006,07,22,03,41,22.90
2006,07,22,03,42,22.90
2006,07,22,03,43,22.90
2006,07,22,03,44,22.90
2006,07,22,03,45,22.90
2006,07,22,03,46,22.90
2006,07,22,03,47,22.90
2006,07,22,03,48,22.90
2006,07,22,03,49,22.90
2006,07,22,03,50,22.90
2006,07,22,03,51,22.90
2006,07,22,03,52,22.80
2006,07,22,03,53,22.80
2006,07,22,03,54,22.80
2006,07,22,03,55,22.70
2006,07,22,03,56,22.70
2006,07,22,03,57,22.60
2006,07,22,03,58,22.60
2006,07,22,03,59,22.50
2006,07,22,04,00,22.50
2006,07,22,04,01,22.40
2006,07,22,04,02,22.40
2006,07,22,04,03,22.30
2006,07,22,04,04,22.30
2006,07,22,04,05,22.20
2006,07,22,04,06,22.20
2006,07,22,04,07,22.20
2006,07,22,04,08,22.10
2006,07,22,04,09,22.10
2006,07,22,04,10,22.00
2006,07,22,04,11,22.00
2006,07,22,04,12,22.00
2006,07,22,04,13,22.00
2006,07,22,04,14,21.90
2006,07,22,04,15,21.90
2006,07,22,04,16,21.90
2006,07,22,04,17,21.90
2006,07,22,04,18,21.90
2006,07,22,04,19,21.90
2006,07,22,04,20,21.80
2006,07,22,04,21,21.80
2006,07,22,04,22,21.80
2006,07,22,04,23,21.80
2006,07,22,04,24,21.70
2006,07,22,04,25,21.70
2006,07,22,04,26,21.70
2006,07,22,04,27,21.70
2006,07,22,04,28,21.70
2006,07,22,04,29,21.60
2006,07,22,04,30,21.60
2006,07,22,04,31,21.60
2006,07,22,04,32,21.60
2006,07,22,04,33,21.60
2006,07,22,04,34,21.60
2006,07,22,04,35,21.60
2006,07,22,04,36,21.60
2006,07,22,04,37,21.60
2006,07,22,04,38,21.60
2006,07,22,04,39,21.60
2006,07,22,04,40,21.60
2006,07,22,04,41,21.60
2006,07,22,04,42,21.60
2006,07,22,04,43,21.60
2006,07,22,04,44,21.60
2006,07,22,04,45,21.60
2006,07,22,04,46,21.50
2006,07,22,04,47,21.40
2006,07,22,04,48,21.40
2006,07,22,04,49,21.40
2006,07,22,04,50,21.40
2006,07,22,04,51,21.40
2006,07,22,04,52,21.40
2006,07,22,04,53,21.30
2006,07,22,04,54,21.30
2006,07,22,04,55,21.30
2006,07,22,04,56,21.30
2006,07,22,04,57,21.30
2006,07,22,04,58,21.30
2006,07,22,04,59,21.30
2006,07,22,05,00,21.30
2006,07,22,05,01,21.30
2006,07,22,05,02,21.30
2006,07,22,05,03,21.30
2006,07,22,05,04,21.30
2006,07,22,05,05,21.20
2006,07,22,05,06,21.20
2006,07,22,05,07,21.20
2006,07,22,05,08,21.20
2006,07,22,05,09,21.20
2006,07,22,05,10,21.20
2006,07,22,05,11,21.20
2006,07,22,05,12,21.20
2006,07,22,05,13,21.20
2006,07,22,05,14,21.20
2006,07,22,05,15,21.20
2006,07,22,05,16,21.20
2006,07,22,05,17,21.20
2006,07,22,05,18,21.20
2006,07,22,05,19,21.20
2006,07,22,05,20,21.10
2006,07,22,05,21,21.10
2006,07,22,05,22,21.10
2006,07,22,05,23,21.10
2006,07,22,05,24,21.10
2006,07,22,05,25,21.10
2006,07,22,05,26,21.10
2006,07,22,05,27,21.10
2006,07,22,05,28,21.00
2006,07,22,05,29,21.00
2006,07,22,05,30,21.00
2006,07,22,05,31,21.00
2006,07,22,05,32,21.00
2006,07,22,05,33,21.00
2006,07,22,05,34,21.00
2006,07,22,05,35,21.00
2006,07,22,05,36,21.00
2006,07,22,05,37,20.90
2006,07,22,05,38,20.90
2006,07,22,05,39,20.90
2006,07,22,05,40,20.80
2006,07,22,05,41,20.80
2006,07,22,05,42,20.70
2006,07,22,05,43,20.70
2006,07,22,05,44,20.70
2006,07,22,05,45,20.60
2006,07,22,05,46,20.60
2006,07,22,05,47,20.60
2006,07,22,05,48,20.50
2006,07,22,05,49,20.50
2006,07,22,05,50,20.50
2006,07,22,05,51,20.50
2006,07,22,05,52,20.40
2006,07,22,05,53,20.40
2006,07,22,05,54,20.40
2006,07,22,05,55,20.40
2006,07,22,05,56,20.40
2006,07,22,05,57,20.40
2006,07,22,05,58,20.40
2006,07,22,05,59,20.40
2006,07,22,06,00,20.40
2006,07,22,06,01,20.40
2006,07,22,06,02,20.40
2006,07,22,06,03,20.40
2006,07,22,06,04,20.40
2006,07,22,06,05,20.40
2006,07,22,06,06,20.40
2006,07,22,06,07,20.40
2006,07,22,06,08,20.40
2006,07,22,06,09,20.40
2006,07,22,06,10,20.40
2006,07,22,06,11,20.40
2006,07,22,06,12,20.40
2006,07,22,06,13,20.40
2006,07,22,06,14,20.40
2006,07,22,06,15,20.40
2006,07,22,06,16,20.40
2006,07,22,06,17,20.30
2006,07,22,06,18,20.30
2006,07,22,06,19,20.30
2006,07,22,06,20,20.40
2006,07,22,06,21,20.40
2006,07,22,06,22,20.40
2006,07,22,06,23,20.40
2006,07,22,06,24,20.40
2006,07,22,06,25,20.40
2006,07,22,06,26,20.40
2006,07,22,06,27,20.40
2006,07,22,06,28,20.40
2006,07,22,06,29,20.40
2006,07,22,06,30,20.40
2006,07,22,06,31,20.40
2006,07,22,06,32,20.40
2006,07,22,06,33,20.40
2006,07,22,06,34,20.40
2006,07,22,06,35,20.40
2006,07,22,06,36,20.50
2006,07,22,06,37,20.50
2006,07,22,06,38,20.50
2006,07,22,06,39,20.50
2006,07,22,06,40,20.50
2006,07,22,06,41,20.50
2006,07,22,06,42,20.60
2006,07,22,06,43,20.60
2006,07,22,06,44,20.60
2006,07,22,06,45,20.60
2006,07,22,06,46,20.60
2006,07,22,06,47,20.60
2006,07,22,06,48,20.60
2006,07,22,06,49,20.70
2006,07,22,06,50,20.70
2006,07,22,06,51,20.70
2006,07,22,06,52,20.70
2006,07,22,06,53,20.70
2006,07,22,06,54,20.70
2006,07,22,06,55,20.70
2006,07,22,06,56,20.70
2006,07,22,06,57,20.70
2006,07,22,06,58,20.70
2006,07,22,06,59,20.70
2006,07,22,07,00,20.70
2006,07,22,07,01,20.70
2006,07,22,07,02,20.70
2006,07,22,07,03,20.70
2006,07,22,07,04,20.80
2006,07,22,07,05,20.80
2006,07,22,07,06,20.80
2006,07,22,07,07,20.80
2006,07,22,07,08,20.90
2006,07,22,07,09,20.90
2006,07,22,07,10,21.00
2006,07,22,07,11,21.00
2006,07,22,07,12,21.00
2006,07,22,07,13,21.10
2006,07,22,07,14,21.10
2006,07,22,07,15,21.20
2006,07,22,07,16,21.20
2006,07,22,07,17,21.30
2006,07,22,07,18,21.30
2006,07,22,07,19,21.30
2006,07,22,07,20,21.40
2006,07,22,07,21,21.60
2006,07,22,07,22,21.60
2006,07,22,07,23,21.70
2006,07,22,07,24,21.80
2006,07,22,07,25,21.90
2006,07,22,07,26,22.00
2006,07,22,07,27,22.10
2006,07,22,07,28,22.20
2006,07,22,07,29,22.20
2006,07,22,07,30,22.30
2006,07,22,07,31,22.30
2006,07,22,07,32,22.30
2006,07,22,07,33,22.40
2006,07,22,07,34,22.40
2006,07,22,07,35,22.50
2006,07,22,07,36,22.60
2006,07,22,07,37,22.60
2006,07,22,07,38,22.70
2006,07,22,07,39,22.80
2006,07,22,07,40,22.90
2006,07,22,07,41,23.00
2006,07,22,07,42,23.20
2006,07,22,07,43,23.30
2006,07,22,07,44,23.40
2006,07,22,07,45,23.50
2006,07,22,07,46,23.60
2006,07,22,07,47,23.70
2006,07,22,07,48,23.80
2006,07,22,07,49,23.80
2006,07,22,07,50,23.90
2006,07,22,07,51,23.90
2006,07,22,07,52,24.00
2006,07,22,07,53,24.10
2006,07,22,07,54,24.10
2006,07,22,07,55,24.20
2006,07,22,07,56,24.20
2006,07,22,07,57,24.30
2006,07,22,07,58,24.40
2006,07,22,07,59,24.40
2006,07,22,08,00,24.40
2006,07,22,08,01,24.40
2006,07,22,08,02,24.40
2006,07,22,08,03,24.40
2006,07,22,08,04,24.40
2006,07,22,08,05,24.40
2006,07,22,08,06,24.40
2006,07,22,08,07,24.40
2006,07,22,08,08,24.40
2006,07,22,08,09,24.40
2006,07,22,08,10,24.40
2006,07,22,08,11,24.40
2006,07,22,08,12,24.40
2006,07,22,08,13,24.30
2006,07,22,08,14,24.30
2006,07,22,08,15,24.30
2006,07,22,08,16,24.20
2006,07,22,08,17,24.20
2006,07,22,08,18,24.20
2006,07,22,08,19,24.20
2006,07,22,08,20,24.30
2006,07,22,08,21,24.30
2006,07,22,08,22,24.30
2006,07,22,08,23,24.40
2006,07,22,08,24,24.50
2006,07,22,08,25,24.60
2006,07,22,08,26,24.70
2006,07,22,08,27,24.80
2006,07,22,08,28,24.90
2006,07,22,08,29,25.00
2006,07,22,08,30,25.00
2006,07,22,08,31,25.00
2006,07,22,08,32,25.00
2006,07,22,08,33,25.10
2006,07,22,08,34,25.20
2006,07,22,08,35,25.30
2006,07,22,08,36,25.40
2006,07,22,08,37,25.40
2006,07,22,08,38,25.50
2006,07,22,08,39,25.60
2006,07,22,08,40,25.70
2006,07,22,08,41,25.80
2006,07,22,08,42,26.00
2006,07,22,08,43,26.10
2006,07,22,08,44,26.30
2006,07,22,08,45,26.40
2006,07,22,08,46,26.50
2006,07,22,08,47,26.60
2006,07,22,08,48,26.70
2006,07,22,08,49,26.90
2006,07,22,08,50,27.10
2006,07,22,08,51,27.30
2006,07,22,08,52,27.30
2006,07,22,08,53,27.50
2006,07,22,08,54,27.70
2006,07,22,08,55,27.80
2006,07,22,08,56,28.00
2006,07,22,08,57,28.10
2006,07,22,08,58,28.20
2006,07,22,08,59,28.20
2006,07,22,09,00,28.30
2006,07,22,09,01,28.30
2006,07,22,09,02,28.40
2006,07,22,09,03,28.50
2006,07,22,09,04,28.60
2006,07,22,09,05,28.70
2006,07,22,09,06,28.70
2006,07,22,09,07,28.70
2006,07,22,09,08,28.80
2006,07,22,09,09,28.80
2006,07,22,09,10,28.80
2006,07,22,09,11,28.90
2006,07,22,09,12,28.90
2006,07,22,09,13,28.90
2006,07,22,09,14,28.90
2006,07,22,09,15,28.90
2006,07,22,09,16,28.90
2006,07,22,09,17,28.80
2006,07,22,09,18,28.90
2006,07,22,09,19,28.90
2006,07,22,09,20,28.90
2006,07,22,09,21,28.90
2006,07,22,09,22,28.90
2006,07,22,09,23,28.90
2006,07,22,09,24,28.90
2006,07,22,09,25,28.90
2006,07,22,09,26,28.80
2006,07,22,09,27,28.80
2006,07,22,09,28,28.80
2006,07,22,09,29,28.80
2006,07,22,09,30,28.80
2006,07,22,09,31,28.90
2006,07,22,09,32,28.90
2006,07,22,09,33,29.00
2006,07,22,09,34,29.10
2006,07,22,09,35,29.20
2006,07,22,09,36,29.20
2006,07,22,09,37,29.30
2006,07,22,09,38,29.40
2006,07,22,09,39,29.40
2006,07,22,09,40,29.50
2006,07,22,09,41,29.60
2006,07,22,09,42,29.60
2006,07,22,09,43,29.60
2006,07,22,09,44,29.60
2006,07,22,09,45,29.60
2006,07,22,09,46,29.60
2006,07,22,09,47,29.60
2006,07,22,09,48,29.50
2006,07,22,09,49,29.40
2006,07,22,09,50,29.30
2006,07,22,09,51,29.30
2006,07,22,09,52,29.30
2006,07,22,09,53,29.30
2006,07,22,09,54,29.30
2006,07,22,09,55,29.10
2006,07,22,09,56,29.10
2006,07,22,09,57,29.10
2006,07,22,09,58,28.90
2006,07,22,09,59,28.90
2006,07,22,10,00,28.70
2006,07,22,10,01,28.60
2006,07,22,10,02,28.60
2006,07,22,10,03,28.50
2006,07,22,10,04,28.40
2006,07,22,10,05,28.30
2006,07,22,10,06,28.20
2006,07,22,10,07,28.20
2006,07,22,10,08,28.10
2006,07,22,10,09,28.00
2006,07,22,10,10,27.80
2006,07,22,10,11,27.70
2006,07,22,10,12,27.70
2006,07,22,10,13,27.60
2006,07,22,10,14,27.40
2006,07,22,10,15,27.30
2006,07,22,10,16,27.30
2006,07,22,10,17,27.30
2006,07,22,10,18,27.30
2006,07,22,10,19,27.30
2006,07,22,10,20,27.30
2006,07,22,10,21,27.30
2006,07,22,10,22,27.30
2006,07,22,10,23,27.30
2006,07,22,10,24,27.30
2006,07,22,10,25,27.30
2006,07,22,10,26,27.30
2006,07,22,10,27,27.30
2006,07,22,10,28,27.40
2006,07,22,10,29,27.40
2006,07,22,10,30,27.50
2006,07,22,10,31,27.60
2006,07,22,10,32,27.60
2006,07,22,10,33,27.50
2006,07,22,10,34,27.50
2006,07,22,10,35,27.60
2006,07,22,10,36,27.60
2006,07,22,10,37,27.70
2006,07,22,10,38,27.70
2006,07,22,10,39,27.80
2006,07,22,10,40,27.80
2006,07,22,10,41,27.90
2006,07,22,10,42,27.90
2006,07,22,10,43,28.00
2006,07,22,10,44,28.10
2006,07,22,10,45,28.20
2006,07,22,10,46,28.30
2006,07,22,10,47,28.40
2006,07,22,10,48,28.40
2006,07,22,10,49,28.40
2006,07,22,10,50,28.30
2006,07,22,10,51,28.20
2006,07,22,10,52,28.20
2006,07,22,10,53,28.10
2006,07,22,10,54,28.10
2006,07,22,10,55,28.20
2006,07,22,10,56,28.30
2006,07,22,10,57,28.50
2006,07,22,10,58,28.60
2006,07,22,10,59,28.80
2006,07,22,11,00,28.90
2006,07,22,11,01,28.90
2006,07,22,11,02,29.10
2006,07,22,11,03,29.20
2006,07,22,11,04,29.30
2006,07,22,11,05,29.50
2006,07,22,11,06,29.60
2006,07,22,11,07,29.80
2006,07,22,11,08,29.90
2006,07,22,11,09,29.90
2006,07,22,11,10,30.00
2006,07,22,11,11,30.10
2006,07,22,11,12,30.20
2006,07,22,11,13,30.30
2006,07,22,11,14,30.30
2006,07,22,11,15,30.50
2006,07,22,11,16,30.60
2006,07,22,11,17,30.50
2006,07,22,11,18,30.30
2006,07,22,11,19,30.30
2006,07,22,11,20,30.30
2006,07,22,11,21,30.30
2006,07,22,11,22,30.30
2006,07,22,11,23,30.30
2006,07,22,11,24,30.30
2006,07,22,11,25,30.40
2006,07,22,11,26,30.30
2006,07,22,11,27,30.30
2006,07,22,11,28,30.40
2006,07,22,11,29,30.50
2006,07,22,11,30,30.60
2006,07,22,11,31,30.50
2006,07,22,11,32,30.60
2006,07,22,11,33,30.60
2006,07,22,11,34,30.60
2006,07,22,11,35,30.70
2006,07,22,11,36,30.70
2006,07,22,11,37,30.70
2006,07,22,11,38,30.60
2006,07,22,11,39,30.70
2006,07,22,11,40,30.80
2006,07,22,11,41,30.80
2006,07,22,11,42,30.70
2006,07,22,11,43,30.70
2006,07,22,11,44,30.70
2006,07,22,11,45,30.70
2006,07,22,11,46,30.60
2006,07,22,11,47,30.60
2006,07,22,11,48,30.30
2006,07,22,11,49,30.30
2006,07,22,11,50,30.30
2006,07,22,11,51,30.20
2006,07,22,11,52,30.20
2006,07,22,11,53,30.20
2006,07,22,11,54,30.20
2006,07,22,11,55,30.20
2006,07,22,11,56,30.30
2006,07,22,11,57,30.30
2006,07,22,11,58,30.30
2006,07,22,11,59,30.20
2006,07,22,12,00,30.20
2006,07,22,12,01,30.20
2006,07,22,12,02,30.20
2006,07,22,12,03,30.20
2006,07,22,12,04,30.20
2006,07,22,12,05,30.20
2006,07,22,12,06,30.20
2006,07,22,12,07,30.20
2006,07,22,12,08,30.20
2006,07,22,12,09,30.30
2006,07,22,12,10,30.40
2006,07,22,12,11,30.40
2006,07,22,12,12,30.40
2006,07,22,12,13,30.40
2006,07,22,12,14,30.40
2006,07,22,12,15,30.40
2006,07,22,12,16,30.30
2006,07,22,12,17,30.20
2006,07,22,12,18,30.10
2006,07,22,12,19,30.10
2006,07,22,12,20,30.20
2006,07,22,12,21,30.20
2006,07,22,12,22,30.30
2006,07,22,12,23,30.40
2006,07,22,12,24,30.30
2006,07,22,12,25,30.20
2006,07,22,12,26,30.20
2006,07,22,12,27,30.20
2006,07,22,12,28,30.30
2006,07,22,12,29,30.30
2006,07,22,12,30,30.20
2006,07,22,12,31,30.30
2006,07,22,12,32,30.40
2006,07,22,12,33,30.50
2006,07,22,12,34,30.60
2006,07,22,12,35,30.60
2006,07,22,12,36,30.70
2006,07,22,12,37,30.80
2006,07,22,12,38,30.90
2006,07,22,12,39,31.00
2006,07,22,12,40,31.00
2006,07,22,12,41,31.00
2006,07,22,12,42,30.90
2006,07,22,12,43,30.90
2006,07,22,12,44,31.00
2006,07,22,12,45,31.00
2006,07,22,12,46,31.00
2006,07,22,12,47,31.00
2006,07,22,12,48,31.00
2006,07,22,12,49,31.10
2006,07,22,12,50,31.10
2006,07,22,12,51,31.20
2006,07,22,12,52,31.30
2006,07,22,12,53,31.40
2006,07,22,12,54,31.50
2006,07,22,12,55,31.60
2006,07,22,12,56,31.50
2006,07,22,12,57,31.40
2006,07,22,12,58,31.40
2006,07,22,12,59,31.50
2006,07,22,13,00,31.60
2006,07,22,13,01,31.60
2006,07,22,13,02,31.60
2006,07,22,13,03,31.70
2006,07,22,13,04,31.80
2006,07,22,13,05,31.80
2006,07,22,13,06,31.80
2006,07,22,13,07,31.60
2006,07,22,13,08,31.40
2006,07,22,13,09,31.20
2006,07,22,13,10,31.20
2006,07,22,13,11,31.20
2006,07,22,13,12,31.30
2006,07,22,13,13,31.30
2006,07,22,13,14,31.30
2006,07,22,13,15,31.40
2006,07,22,13,16,31.50
2006,07,22,13,17,31.40
2006,07,22,13,18,31.40
2006,07,22,13,19,31.50
2006,07,22,13,20,31.50
2006,07,22,13,21,31.60
2006,07,22,13,22,31.60
2006,07,22,13,23,31.60
2006,07,22,13,24,31.60
2006,07,22,13,25,31.50
2006,07,22,13,26,31.30
2006,07,22,13,27,31.30
2006,07,22,13,28,31.30
2006,07,22,13,29,31.40
2006,07,22,13,30,31.60
2006,07,22,13,31,31.50
2006,07,22,13,32,31.60
2006,07,22,13,33,31.60
2006,07,22,13,34,31.60
2006,07,22,13,35,31.60
2006,07,22,13,36,31.60
2006,07,22,13,37,31.60
2006,07,22,13,38,31.70
2006,07,22,13,39,31.70
2006,07,22,13,40,31.70
2006,07,22,13,41,31.80
2006,07,22,13,42,31.90
2006,07,22,13,43,32.10
2006,07,22,13,44,32.20
2006,07,22,13,45,32.20
2006,07,22,13,46,32.20
2006,07,22,13,47,32.20
2006,07,22,13,48,32.30
2006,07,22,13,49,32.30
2006,07,22,13,50,32.30
2006,07,22,13,51,32.40
2006,07,22,13,52,32.40
2006,07,22,13,53,32.40
2006,07,22,13,54,32.40
2006,07,22,13,55,32.50
2006,07,22,13,56,32.50
2006,07,22,13,57,32.60
2006,07,22,13,58,32.60
2006,07,22,13,59,32.70
2006,07,22,14,00,32.60
2006,07,22,14,01,32.50
2006,07,22,14,02,32.50
2006,07,22,14,03,32.50
2006,07,22,14,04,32.60
2006,07,22,14,05,32.50
2006,07,22,14,06,32.60
2006,07,22,14,07,32.60
2006,07,22,14,08,32.60
2006,07,22,14,09,32.70
2006,07,22,14,10,32.80
2006,07,22,14,11,32.90
2006,07,22,14,12,33.00
2006,07,22,14,13,33.10
2006,07,22,14,14,33.20
2006,07,22,14,15,33.20
2006,07,22,14,16,33.20
2006,07,22,14,17,33.10
2006,07,22,14,18,33.20
2006,07,22,14,19,33.20
2006,07,22,14,20,33.10
2006,07,22,14,21,33.10
2006,07,22,14,22,33.10
2006,07,22,14,23,33.20
2006,07,22,14,24,33.20
2006,07,22,14,25,33.20
2006,07,22,14,26,33.30
2006,07,22,14,27,33.40
2006,07,22,14,28,33.40
2006,07,22,14,29,33.40
2006,07,22,14,30,33.40
2006,07,22,14,31,33.40
2006,07,22,14,32,33.40
2006,07,22,14,33,33.30
2006,07,22,14,34,33.20
2006,07,22,14,35,33.40
2006,07,22,14,36,33.40
2006,07,22,14,37,33.50
2006,07,22,14,38,33.60
2006,07,22,14,39,33.70
2006,07,22,14,40,33.80
2006,07,22,14,41,33.80
2006,07,22,14,42,33.80
2006,07,22,14,43,33.80
2006,07,22,14,44,33.70
2006,07,22,14,45,33.60
2006,07,22,14,46,33.60
2006,07,22,14,47,33.60
2006,07,22,14,48,33.60
2006,07,22,14,49,33.60
2006,07,22,14,50,33.70
2006,07,22,14,51,33.80
2006,07,22,14,52,33.80
2006,07,22,14,53,34.00
2006,07,22,14,54,34.00
2006,07,22,14,55,34.00
2006,07,22,14,56,34.00
2006,07,22,14,57,34.00
2006,07,22,14,58,33.90
2006,07,22,14,59,33.80
2006,07,22,15,00,33.80
2006,07,22,15,01,34.00
2006,07,22,15,02,34.00
2006,07,22,15,03,34.10
2006,07,22,15,04,34.20
2006,07,22,15,05,34.30
2006,07,22,15,06,34.30
2006,07,22,15,07,34.30
2006,07,22,15,08,34.30
2006,07,22,15,09,34.30
2006,07,22,15,10,34.20
2006,07,22,15,11,34.10
2006,07,22,15,12,33.80
2006,07,22,15,13,33.90
2006,07,22,15,14,34.00
2006,07,22,15,15,34.10
2006,07,22,15,16,34.20
2006,07,22,15,17,34.30
2006,07,22,15,18,34.30
2006,07,22,15,19,34.30
2006,07,22,15,20,34.20
2006,07,22,15,21,34.10
2006,07,22,15,22,33.90
2006,07,22,15,23,33.70
2006,07,22,15,24,33.50
2006,07,22,15,25,33.50
2006,07,22,15,26,33.60
2006,07,22,15,27,33.60
2006,07,22,15,28,33.70
2006,07,22,15,29,33.60
2006,07,22,15,30,33.50
2006,07,22,15,31,33.40
2006,07,22,15,32,33.40
2006,07,22,15,33,33.30
2006,07,22,15,34,33.20
2006,07,22,15,35,33.30
2006,07,22,15,36,33.40
2006,07,22,15,37,33.50
2006,07,22,15,38,33.60
2006,07,22,15,39,33.70
2006,07,22,15,40,33.70
2006,07,22,15,41,33.70
2006,07,22,15,42,33.70
2006,07,22,15,43,33.80
2006,07,22,15,44,33.60
2006,07,22,15,45,33.50
2006,07,22,15,46,33.40
2006,07,22,15,47,33.40
2006,07,22,15,48,33.40
2006,07,22,15,49,33.40
2006,07,22,15,50,33.50
2006,07,22,15,51,33.50
2006,07,22,15,52,33.50
2006,07,22,15,53,33.50
2006,07,22,15,54,33.40
2006,07,22,15,55,33.40
2006,07,22,15,56,33.30
2006,07,22,15,57,33.40
2006,07,22,15,58,33.50
2006,07,22,15,59,33.50
2006,07,22,16,00,33.50
2006,07,22,16,01,33.60
2006,07,22,16,02,33.70
2006,07,22,16,03,33.70
2006,07,22,16,04,33.80
2006,07,22,16,05,33.90
2006,07,22,16,06,34.00
2006,07,22,16,07,34.00
2006,07,22,16,08,34.00
2006,07,22,16,09,34.00
2006,07,22,16,10,34.00
2006,07,22,16,11,34.00
2006,07,22,16,12,34.00
2006,07,22,16,13,33.90
2006,07,22,16,14,33.90
2006,07,22,16,15,33.70
2006,07,22,16,16,33.70
2006,07,22,16,17,33.70
2006,07,22,16,18,33.70
2006,07,22,16,19,33.70
2006,07,22,16,20,33.70
2006,07,22,16,21,33.70
2006,07,22,16,22,33.70
2006,07,22,16,23,33.70
2006,07,22,16,24,33.60
2006,07,22,16,25,33.60
2006,07,22,16,26,33.50
2006,07,22,16,27,33.50
2006,07,22,16,28,33.50
2006,07,22,16,29,33.40
2006,07,22,16,30,33.30
2006,07,22,16,31,33.20
2006,07,22,16,32,33.20
2006,07,22,16,33,33.10
2006,07,22,16,34,33.00
2006,07,22,16,35,33.00
2006,07,22,16,36,33.00
2006,07,22,16,37,32.90
2006,07,22,16,38,32.90
2006,07,22,16,39,32.80
2006,07,22,16,40,32.80
2006,07,22,16,41,32.60
2006,07,22,16,42,32.60
2006,07,22,16,43,32.60
2006,07,22,16,44,32.50
2006,07,22,16,45,32.50
2006,07,22,16,46,32.40
2006,07,22,16,47,32.40
2006,07,22,16,48,32.40
2006,07,22,16,49,32.40
2006,07,22,16,50,32.30
2006,07,22,16,51,32.30
2006,07,22,16,52,32.20
2006,07,22,16,53,32.10
2006,07,22,16,54,32.10
2006,07,22,16,55,32.00
2006,07,22,16,56,31.90
2006,07,22,16,57,31.90
2006,07,22,16,58,31.90
2006,07,22,16,59,31.80
2006,07,22,17,00,31.80
2006,07,22,17,01,31.70
2006,07,22,17,02,31.70
2006,07,22,17,03,31.60
2006,07,22,17,04,31.50
2006,07,22,17,05,31.40
2006,07,22,17,06,31.40
2006,07,22,17,07,31.30
2006,07,22,17,08,31.30
2006,07,22,17,09,31.30
2006,07,22,17,10,31.30
2006,07,22,17,11,31.20
2006,07,22,17,12,31.20
2006,07,22,17,13,31.20
2006,07,22,17,14,31.10
2006,07,22,17,15,31.10
2006,07,22,17,16,31.10
2006,07,22,17,17,31.10
2006,07,22,17,18,31.10
2006,07,22,17,19,31.10